This is the latest recevied weather packets stored in our database for station/object W5COG. If no packets are shown the sender has not sent any weather packets the latest 10 day(s).
| Time | Temp. | Humidity | Pressure | Rain* | Wind** | Luminosity | Snow |
|---|---|---|---|---|---|---|---|
| 1777723527 | 8.89° C | 90% | 1019.9 hPa | 0 mm | - | 29 W/m² | - |
| 1777723227 | 8.89° C | 90% | 1019.9 hPa | 0 mm | - | 19 W/m² | - |
| 1777722927 | 8.89° C | 89% | 1019.9 hPa | 0 mm | - | 13 W/m² | - |
| 1777722027 | 8.89° C | 87% | 1020.1 hPa | 0 mm | - | 6 W/m² | - |
| 1777721727 | 9.44° C | 86% | 1020 hPa | 0 mm | - | 4 W/m² | - |
| 1777721427 | 9.44° C | 86% | 1019.9 hPa | 0 mm | - | 2 W/m² | - |
| 1777721126 | 9.44° C | 85% | 1019.9 hPa | 0 mm | - | 1 W/m² | - |
| 1777720826 | 10° C | 84% | 1019.7 hPa | 0 mm | - | 0 W/m² | - |
| 1777720527 | 10° C | 84% | 1019.7 hPa | 0 mm | - | 0 W/m² | - |
| 1777720227 | 10° C | 83% | 1019.4 hPa | 0 mm | - | 0 W/m² | - |
| 1777719927 | 10° C | 81% | 1019.2 hPa | 0 mm | - | 0 W/m² | - |
| 1777719627 | 10° C | 83% | 1018.8 hPa | 0 mm | - | 0 W/m² | - |
| 1777719327 | 10° C | 85% | 1019.2 hPa | 0 mm | - | 0 W/m² | - |
| 1777719027 | 10° C | 86% | 1019.4 hPa | 0 mm | - | 0 W/m² | - |
| 1777718727 | 10° C | 85% | 1019.6 hPa | 0 mm | - | 0 W/m² | - |
| 1777718427 | 10° C | 84% | 1019.7 hPa | 0 mm | - | 0 W/m² | - |
| 1777717527 | 10.56° C | 79% | 1019.6 hPa | 0 mm | - | 0 W/m² | - |
| 1777717227 | 10.56° C | 78% | 1019.5 hPa | 0 mm | - | 0 W/m² | - |
| 1777716927 | 11.11° C | 79% | 1019.7 hPa | 0 mm | - | 0 W/m² | - |
| 1777716627 | 11.11° C | 79% | 1019.9 hPa | 0 mm | - | 0 W/m² | - |
| 1777716327 | 11.11° C | 78% | 1020 hPa | 0 mm | - | 0 W/m² | - |
| 1777716027 | 11.11° C | 79% | 1020.1 hPa | 0 mm | - | 0 W/m² | - |
| 1777715727 | 11.67° C | 76% | 1020.1 hPa | 0 mm | - | 0 W/m² | - |
| 1777715426 | 11.67° C | 75% | 1020.1 hPa | 0 mm | - | 0 W/m² | - |
| 1777715126 | 11.67° C | 74% | 1020.1 hPa | 0 mm | - | 0 W/m² | - |
* Rain latest hour (hover to see other rain measurements)
** Current wind speed in m/s (hover to see current wind gust speed)